Find Starlink 32949

NORAD ID: 63145 Int'l Des: 2025-043 Owner: SPXS Country: US Constellation: starlink operational
LEOCIRCULAR

Live Position

Loading 3D Globe...

About Starlink 32949

Description loading...

Upcoming Passes

Passes for default location (London). Set your location on the main map for personalized predictions.

Altitude History

Loading altitude history...

Two-Line Element Set

1 63145U 25043P 26125.21305816 .00016513 00000-0 60791-3 0 9997
2 63145 43.0017 57.2925 0001513 266.8261 93.2417 15.27597211 66577
Epoch: May 5, 2026 • Age: 14 hours

Current Status

Altitude 487.6 km
Velocity 7.62 km/s
Sub-Earth Point -22.38°S, 122.06°W
Launch Date Mar 3, 2025
Age 1.1 years
Type internet

Technical Details

Classification Payload
Mass 730.00 kg
Dry Mass 700.00 kg
Total Mass 730.00 kg
Length 0.30 m
Diameter 4.10 m
Span 29.00 m
Shape Box + pan
Manufacturer SPXS
Bus Type Starlink V2M
Phase Status In Orbit
Owner/State SPXS/US

Most Searched